Miscellaneous Local Product
Issued by NWS Hastings, NE

Home | Current Version | Previous Version | Text Only | Print | Product List | Glossary Off
Versions: 1 2 3 4 5 6 7 8 9 10 11 12 13 14 15 16 17 18 19 20 21 22 23 24 25 26 27 28 29 30 31 32 33 34 35 36 37 38 39 40 41 42 43 44 45 46 47 48 49 50

559
AXUS43 KGID 072302
MISGRI

GID CWA HOURLY WEATHER ROUNDUP
NATIONAL WEATHER SERVICE HASTINGS NE
500 PM CST SUN FEB 07 2016

NOTE: "FAIR" INDICATES FEW OR NO CLOUDS BELOW 12,000 FEET WITH NO
SIGNIFICANT WEATHER AND/OR OBSTRUCTIONS TO VISIBILITY.

...SOUTH CENTRAL NEBRASKA...

CITY           SKY/WX    TMP DP  RH WIND       PRES   REMARKS
GRAND ISLAND   CLOUDY    39  20  46 NW26G36   30.06S WCI  28
HASTINGS       PTCLDY    39  20  46 NW22G31   30.07F WCI  29
ORD            MOCLDY    38  20  48 NW22G40   30.04R WCI  27
YORK           CLOUDY    37  27  65 NW21G26   30.04F WCI  27
AURORA         CLOUDY    37  26  64 NW13      30.05F WCI  28
LEXINGTON      SUNNY     39  15  37 NW30G38   30.13S WCI  28
HOLDREGE       CLEAR     39  20  48 NW25G33   30.11R WCI  27
HEBRON         CLOUDY    40  23  51 NW17G25   30.08S WCI  31

...NEBRASKA PANHANDLE...

CITY           SKY/WX    TMP DP  RH WIND       PRES   REMARKS
CHADRON        SUNNY     37  14  38 NW22G38   30.28R WCI  26
ALLIANCE       SUNNY     32  15  49 NW25G36   30.23R WCI  19
SCOTTSBLUFF    CLOUDY    33  16  49 NW28      30.31R WCI  20
SIDNEY         PTSUNNY   29  18  63 NW18      30.28R WCI  16

...WESTERN AND NORTH CENTRAL NEBRASKA...

CITY           SKY/WX    TMP DP  RH WIND       PRES   REMARKS
VALENTINE      CLEAR     37  16  42 NW30G59   30.09R WCI  24
AINSWORTH      CLEAR     38  16  40 NW32G47   30.07R WCI  25
ONEILL         CLOUDY    37  23  57 NW30G45   30.01R WCI  24
BROKEN BOW     CLEAR     39  14  36 NW38G48   30.07R WCI  26
IMPERIAL       SUNNY     35  18  49 NW25G36   30.24R WCI  23
NORTH PLATTE   SUNNY     38  18  44 NW21G30   30.16R WCI  28
MCCOOK         SUNNY     38  20  48 NW26G37   30.20S WCI  26

...EASTERN NEBRASKA...

CITY           SKY/WX    TMP DP  RH WIND       PRES   REMARKS
NORFOLK        FLURRIES  36  27  69 NW25G36   29.96R WCI  24
SO SIOUX CITY  CLOUDY    36  27  69 NW29G36   29.91R WCI  23
TEKAMAH        FLURRIES  35  30  82 W28G36    29.94S WCI  22
COLUMBUS       CLOUDY    34  23  64 W17G23    30.01S WCI  23
ALBION         CLOUDY    36  26  65 NW24G32   29.99F WCI  24
OMAHA EPPLEY   FLURRIES  36  30  79 W26G33    29.95F WCI  24
OFFUTT AFB     FLURRIES  37  30  75 NW26      29.95F WCI  26
MILLARD        CLOUDY    37  29  72 W25G37    29.97F WCI  26
LINCOLN        CLOUDY    37  28  70 NW25G33   30.04R WCI  25
NEBRASKA CITY  CLOUDY    37  26  65 NW22G32   30.00R WCI  26
BEATRICE       CLOUDY    37  28  69 NW35G49   30.07R WCI  24
FALLS CITY     CLOUDY    44  22  41 NW29G41   30.00R

...NORTHERN KANSAS...

CITY           SKY/WX    TMP DP  RH WIND       PRES   REMARKS
GOODLAND       CLOUDY    34  18  52 NW24G35   30.27S WCI  21
HILL CITY      SUNNY     38  23  55 NW21G29   30.20S WCI  28
NORTON         CLEAR     37  18  44 W26G38    30.17S WCI  26
PHILLIPSBURG   SUNNY     41  23  48 W25       30.16S
SMITH CENTER   CLEAR     39  25  56 W20       30.14S WCI  30
BELOIT         CLEAR     45  27  49 W14G22    30.12F
HAYS           PTSUNNY   43  19  39 NW28G35   30.20S
RUSSELL        SUNNY     40  24  53 NW21      30.17S WCI  30
CONCORDIA      PTCLDY    44  24  45 NW22G35   30.09R
SALINA         PTCLDY    50  19  29 NW31G38   30.13R
TOPEKA         CLOUDY    49  14  24 W21G31    30.04S



USA.gov is the U.S. government's official web portal to all federal, state and local government web resources and services.